Weather History for Buffalo, WY

Change the Weather History Date:

Wednesday, July 17, 2013

  Actual Average Record
Temperature  
Mean Temperature 76 °F 72 °F  
Max Temperature 92 °F 86 °F 95 °F (2011)
Min Temperature 60 °F 58 °F 52 °F (1999)
Degree Days  
Heating Degree Days 0 1  
Month to date heating degree days 0 20  
Since 1 June heating degree days 100 183  
Since 1 July heating degree days 0 20  
Cooling Degree Days 11 7  
Month to date cooling degree days 151 97  
Year to date cooling degree days 238 155  
Since 1 June cooling degree days 228 148  
Growing Degree Days 26 (Base 50)    
Moisture  
Dew Point 51 °F    
Average Humidity 55    
Maximum Humidity 90    
Minimum Humidity 19    
Precipitation  
Precipitation 0.00 in 0.06 in 0.71 in (2010)
Month to date precipitation T 0.94  
Year to date precipitation 4.08 8.74  
Sea Level Pressure  
Sea Level Pressure 30.04 in    
Wind  
Wind Speed 7 mph (SSE)    
Max Wind Speed 21 mph    
Max Gust Speed 29 mph    
Visibility 10 miles    
Events      
T = Trace of Precipitation, MM = Missing Value Source: NWS Daily Summary

Daily Weather History Graph

Daily Weather History Graph

Search for Another Location

Airport:

Trip Planner

Search our weather history database for the weather conditions in past years. The results will help you decide how hot, cold, wet, or windy it might be!

Date:

Astronomy

Jul. 17, 2013 Rise Set
Actual Time 5:38 AM MDT 8:46 PM MDT
Civil Twilight 5:03 AM MDT 9:21 PM MDT
Nautical Twilight 4:18 AM MDT 10:06 PM MDT
Astronomical Twilight 3:23 AM MDT 11:01 PM MDT
Moon 3:36 PM MDT (7/17) 12:52 AM MDT (7/17)
Length of Visible Light 16h 18m
Length of Day
15h 08m
Waxing Gibbous, 68% of the Moon is Illuminated
Jul 17
Waxing Gibbous
Jul 22
Full
Jul 29
Last Quarter
Aug 6
New
Aug 14
First Quarter

Hourly Weather History & Observations

Time (MDT) Temp. Heat Index Dew Point Humidity Pressure Visibility Wind Dir Wind Speed Gust Speed Precip Events Conditions
12:53 AM 66.0 °F - 54.0 °F 65% 30.12 in 10.0 mi Calm Calm - N/A   Overcast
1:41 AM 64.4 °F - 53.6 °F 68% 30.26 in 10.0 mi South 4.6 mph - N/A   Scattered Clouds
1:53 AM 64.0 °F - 54.0 °F 70% 30.10 in 10.0 mi SSE 4.6 mph - N/A   Partly Cloudy
2:53 AM 64.0 °F - 55.0 °F 73% 30.10 in 10.0 mi South 3.5 mph - N/A   Clear
3:53 AM 63.0 °F - 57.0 °F 81% 30.09 in 10.0 mi South 3.5 mph - N/A   Clear
4:53 AM 61.0 °F - 57.0 °F 87% 30.10 in 10.0 mi South 5.8 mph - N/A   Clear
5:53 AM 61.0 °F - 55.9 °F 83% 30.11 in 10.0 mi South 5.8 mph - N/A   Clear
6:53 AM 64.0 °F - 57.0 °F 78% 30.11 in 10.0 mi Calm Calm - N/A   Clear
7:53 AM 68.0 °F - 59.0 °F 73% 30.10 in 10.0 mi SE 8.1 mph - N/A   Clear
8:53 AM 73.0 °F - 60.1 °F 64% 30.10 in 10.0 mi SSE 8.1 mph - N/A   Clear
9:53 AM 77.0 °F - 59.0 °F 54% 30.08 in 10.0 mi SSE 6.9 mph - N/A   Clear
10:53 AM 82.0 °F 81.2 °F 53.1 °F 37% 30.05 in 10.0 mi ESE 11.5 mph 20.7 mph N/A   Clear
11:53 AM 82.9 °F - 50.0 °F 32% 30.04 in 10.0 mi ESE 11.5 mph - N/A   Clear
12:53 PM 84.9 °F - 48.9 °F 29% 30.02 in 10.0 mi SE 5.8 mph - N/A   Clear
1:53 PM 87.1 °F - 46.0 °F 24% 30.01 in 10.0 mi SSE 6.9 mph - N/A   Clear
2:53 PM 89.1 °F - 45.0 °F 22% 30.00 in 10.0 mi ESE 5.8 mph - N/A   Clear
3:53 PM 89.1 °F - 43.0 °F 20% 29.99 in 10.0 mi Variable 3.5 mph - N/A   Clear
4:53 PM 89.1 °F - 44.1 °F 21% 29.98 in 10.0 mi North 8.1 mph - N/A   Clear
5:53 PM 90.0 °F - 45.0 °F 21% 29.95 in 10.0 mi NNW 9.2 mph - N/A   Clear
6:53 PM 86.0 °F - 46.0 °F 25% 29.95 in 10.0 mi NW 6.9 mph - N/A   Clear
7:53 PM 82.0 °F - 48.0 °F 30% 29.95 in 10.0 mi NW 9.2 mph - N/A   Clear
8:53 PM 80.1 °F - 48.9 °F 34% 29.95 in 10.0 mi West 8.1 mph - N/A   Clear
9:53 PM 77.0 °F - 48.0 °F 36% 29.96 in 10.0 mi West 4.6 mph - N/A   Clear
10:53 PM 75.0 °F - 48.0 °F 38% 29.95 in 10.0 mi WNW 9.2 mph - N/A   Clear
11:53 PM 75.0 °F - 48.0 °F 38% 29.97 in 10.0 mi NW 10.4 mph - N/A   Clear